Temp
-8 -8 -8 -9 -9 -8 -7 -6 -6 -6 -6 -5 -5 -4 -2 -0 -0 0 -1 -0 -0 1 1 2 3 3 3 4 4 4 3 4 4 4 5 6 6 6 6 6 5 5 5
-8 -9 -9 -9 -9 -9 -8 -8 -7 -6 -6 -6 -6 -5 -4 -2 -0 2 -0 -1 -0 0 0 1 2 2 2 3 4 4 3 3 4 4 4 5 5 6 6 5 5 5 4
-9 -9 -10 -9 -9 -10 -9 -8 -8 -7 -7 -7 -6 -5 -5 -4 0 2 1 -0 -1 -0 1 1 2 1 2 3 3 3 4 4 3 3 3 4 5 5 5 5 5 4 3
-10 -10 -10 -10 -10 -10 -10 -9 -8 -8 -8 -7 -7 -6 -5 -5 -3 -1 2 1 -0 -0 0 1 1 2 3 2 3 3 3 3 3 4 3 3 4 4 4 4 4 3 3
-10 -10 -11 -11 -11 -11 -10 -10 -10 -9 -9 -8 -7 -7 -6 -5 -4 -2 -2 2 2 -0 -0 1 2 2 2 3 2 3 2 3 3 3 3 2 2 3 3 3 2 1 3
-11 -12 -12 -11 -11 -11 -11 -11 -10 -10 -10 -9 -8 -7 -6 -6 -5 -5 -3 -2 2 1 -0 -0 1 2 2 2 2 2 2 2 2 3 3 2 2 3 2 2 1 2 2
-12 -12 -12 -12 -12 -12 -12 -12 -11 -11 -10 -10 -9 -8 -7 -6 -6 -6 -3 -3 -3 0 -1 -0 1 1 2 2 2 2 1 3 2 2 2 3 3 2 2 1 2 2 2
-13 -13 -13 -13 -13 -13 -13 -13 -13 -12 -11 -11 -10 -9 -8 -7 -7 -6 -5 -3 -2 -2 -0 -1 0 1 2 2 1 1 3 2 2 2 2 2 0 -1 -0 0 1 1 2
-13 -13 -13 -13 -14 -14 -14 -14 -14 -13 -12 -12 -11 -9 -9 -8 -8 -7 -6 -4 -3 -1 -0 -0 0 1 2 2 2 2 2 1 2 2 2 2 2 1 1 2 2 2 2
-14 -14 -14 -14 -15 -15 -15 -15 -15 -15 -13 -13 -12 -11 -9 -9 -8 -8 -7 -4 -4 -2 0 -0 0 1 0 0 1 2 2 2 2 2 2 2 2 1 2 2 2 2 1
-15 -15 -15 -15 -16 -16 -16 -16 -16 -16 -15 -14 -13 -12 -10 -9 -9 -9 -7 -5 -4 -3 -1 -1 -0 0 0 0 1 2 2 2 2 1 2 1 2 1 2 2 2 1 1
-15 -16 -16 -16 -17 -17 -17 -17 -17 -17 -16 -15 -14 -12 -11 -10 -9 -9 -7 -6 -5 -4 -3 -0 -1 0 0 -0 -0 1 2 2 1 1 1 2 2 2 2 2 1 1 1
-16 -17 -17 -17 -17 -18 -18 -18 -18 -18 -17 -16 -15 -13 -12 -11 -10 -9 -8 -7 -5 -4 -3 -0 -1 -1 0 -0 0 0 1 1 1 1 1 2 1 1 2 1 1 1 1
-18 -18 -18 -18 -18 -19 -19 -19 -19 -19 -18 -17 -16 -14 -13 -11 -11 -9 -8 -7 -6 -4 -3 -2 -0 -1 -1 -0 -1 -1 -0 0 1 1 1 1 1 2 1 1 1 1 0
-19 -19 -19 -19 -19 -20 -20 -19 -19 -19 -19 -17 -16 -15 -14 -12 -11 -9 -9 -8 -6 -4 -3 -3 -2 -1 -2 -0 -0 0 0 0 0 1 2 1 1 1 1 1 1 0 1
-20 -20 -20 -20 -20 -21 -20 -20 -20 -20 -19 -18 -17 -16 -14 -14 -11 -11 -9 -9 -6 -5 -4 -3 -2 -1 -2 -1 -0 0 0 0 1 0 0 1 1 1 2 1 1 0 0
-21 -21 -21 -21 -21 -22 -21 -21 -20 -19 -20 -19 -18 -17 -16 -15 -13 -11 -10 -9 -7 -5 -4 -3 -3 -2 -2 -1 -1 -0 1 1 1 1 1 1 1 1 1 1 1 1 0
-23 -23 -23 -23 -23 -23 -22 -21 -21 -20 -19 -18 -19 -18 -16 -15 -14 -12 -11 -9 -7 -5 -5 -4 -3 -3 -2 -2 -1 -0 -0 0 0 1 1 1 1 1 1 1 1 0 0
-24 -24 -24 -24 -24 -23 -23 -22 -22 -21 -20 -19 -17 -17 -17 -16 -14 -12 -10 -9 -7 -6 -4 -3 -3 -3 -2 -1 -1 -1 -0 0 0 1 0 0 1 1 1 0 -0 -0 0
-25 -25 -25 -25 -25 -24 -24 -23 -22 -22 -21 -20 -18 -17 -17 -16 -15 -13 -11 -10 -8 -6 -5 -4 -2 -2 -3 -1 -2 -1 0 -1 -0 -0 0 1 1 1 0 0 -0 -1 -1
-26 -26 -26 -26 -25 -25 -24 -23 -23 -22 -21 -20 -19 -18 -18 -16 -15 -13 -11 -11 -10 -8 -7 -5 -3 -3 -3 -2 -2 -1 -1 -1 -0 -0 0 -0 0 0 -1 0 -0 -1 -1
-28 -27 -27 -26 -26 -25 -25 -24 -23 -23 -22 -21 -19 -19 -18 -17 -15 -14 -13 -11 -10 -8 -7 -6 -3 -3 -3 -2 -2 -1 -1 -1 -0 -0 -0 -0 -1 -1 -1 -0 -1 -0 -1
-28 -28 -27 -27 -26 -26 -25 -24 -24 -23 -22 -21 -20 -19 -18 -17 -16 -14 -12 -11 -10 -9 -8 -6 -4 -3 -3 -3 -2 -1 -1 -1 -0 0 -0 -1 -1 -1 -1 1 1 -1 -1
-29 -29 -28 -27 -27 -26 -25 -24 -24 -23 -22 -21 -20 -19 -18 -17 -16 -15 -13 -12 -11 -9 -8 -7 -5 -3 -3 -2 -2 -1 -1 -1 -1 -1 -0 -1 -1 -0 0 -0 1 -1 -1
-30 -29 -28 -28 -27 -26 -25 -25 -24 -23 -22 -21 -20 -20 -19 -17 -16 -15 -14 -12 -11 -9 -9 -8 -7 -4 -3 -3 -2 -2 -1 -1 -1 -0 -1 -1 -0 -0 -0 -0 2 0 -1
-29 -29 -28 -27 -27 -26 -25 -24 -24 -23 -22 -21 -21 -20 -18 -18 -16 -15 -14 -13 -11 -9 -9 -8 -7 -6 -3 -2 -2 -2 -1 -2 -1 -1 -1 -1 -1 -1 -1 0 -0 -0 -0
Height
2982 2980 2978 2977 2976 2976 2976 2976 2978 2981 2982 2985 2989 2992 2997 3004 3016 3029 3031 3034 3040 3045 3053 3059 3066 3075 3086 3097 3102 3108 3113 3118 3123 3128 3132 3136 3139 3142 3145 3147 3150 3153 3154
2974 2971 2969 2968 2967 2966 2966 2964 2965 2967 2969 2973 2977 2981 2986 2992 2998 3011 3023 3027 3029 3035 3042 3050 3056 3063 3074 3086 3089 3098 3103 3108 3114 3119 3125 3128 3132 3135 3139 3141 3145 3147 3149
2967 2963 2960 2958 2957 2956 2955 2955 2954 2955 2959 2961 2965 2969 2972 2975 2981 2994 3011 3014 3020 3024 3028 3037 3045 3052 3062 3067 3077 3085 3095 3098 3103 3109 3116 3120 3125 3128 3132 3135 3138 3141 3143
2960 2955 2952 2949 2947 2946 2945 2944 2943 2943 2946 2951 2952 2954 2957 2963 2968 2978 2991 3004 3007 3015 3020 3025 3032 3040 3049 3061 3068 3073 3082 3091 3095 3101 3106 3111 3117 3120 3124 3128 3132 3134 3138
2950 2947 2943 2939 2937 2934 2934 2934 2933 2932 2934 2939 2943 2945 2948 2950 2955 2962 2975 2988 2992 3004 3010 3016 3021 3028 3038 3047 3054 3065 3071 3077 3085 3092 3096 3103 3108 3113 3118 3121 3124 3127 3132
2941 2938 2934 2930 2927 2924 2922 2923 2923 2922 2923 2925 2929 2933 2936 2940 2944 2949 2961 2969 2978 2989 2999 3005 3011 3018 3026 3036 3044 3052 3060 3071 3076 3083 3088 3093 3099 3105 3111 3113 3117 3121 3125
2933 2929 2925 2921 2918 2915 2912 2911 2912 2911 2911 2913 2916 2919 2923 2926 2932 2938 2947 2954 2965 2975 2989 2994 2999 3006 3015 3022 3033 3040 3051 3057 3065 3073 3079 3085 3090 3097 3101 3108 3111 3115 3118
2923 2920 2916 2912 2908 2905 2902 2900 2900 2900 2900 2900 2904 2907 2912 2915 2920 2927 2932 2941 2951 2962 2976 2983 2989 2996 3005 3011 3022 3030 3038 3047 3055 3064 3071 3075 3079 3087 3095 3102 3104 3109 3110
2913 2911 2907 2902 2898 2895 2893 2890 2889 2888 2888 2888 2890 2894 2898 2902 2907 2913 2919 2926 2938 2949 2962 2971 2978 2985 2994 3002 3010 3018 3028 3038 3046 3053 3060 3066 3070 3077 3087 3093 3096 3101 3104
2903 2900 2897 2892 2887 2885 2883 2880 2879 2877 2876 2876 2878 2880 2883 2887 2893 2899 2905 2912 2923 2935 2949 2958 2966 2973 2982 2991 2999 3008 3017 3030 3037 3044 3052 3058 3064 3072 3080 3087 3090 3094 3098
2892 2890 2887 2882 2878 2875 2872 2871 2868 2867 2866 2865 2866 2867 2870 2875 2879 2885 2892 2897 2909 2922 2934 2945 2953 2961 2972 2980 2989 2997 3010 3022 3028 3035 3042 3049 3056 3065 3072 3078 3084 3088 3091
2882 2879 2876 2872 2869 2865 2862 2861 2858 2856 2855 2855 2854 2856 2858 2862 2865 2873 2879 2884 2896 2904 2918 2934 2943 2951 2961 2971 2978 2990 2999 3008 3017 3025 3032 3040 3048 3059 3065 3071 3076 3081 3084
2872 2868 2865 2862 2859 2856 2851 2850 2848 2847 2845 2844 2843 2843 2845 2849 2854 2860 2866 2872 2882 2892 2904 2919 2933 2943 2951 2961 2970 2979 2988 2996 3005 3015 3023 3033 3042 3051 3058 3063 3068 3073 3079
2860 2857 2854 2851 2849 2846 2842 2840 2838 2837 2835 2833 2832 2832 2832 2837 2841 2847 2852 2855 2868 2881 2893 2905 2920 2932 2939 2952 2959 2967 2975 2987 2997 3007 3016 3025 3035 3042 3050 3055 3062 3067 3070
2848 2845 2843 2840 2838 2835 2833 2831 2828 2828 2825 2823 2822 2821 2821 2824 2828 2834 2839 2843 2854 2865 2876 2893 2901 2913 2923 2934 2945 2953 2965 2976 2987 2997 3004 3015 3025 3034 3041 3048 3055 3059 3063
2837 2835 2832 2829 2827 2824 2822 2820 2820 2817 2816 2814 2812 2812 2811 2812 2815 2822 2825 2830 2841 2851 2859 2869 2885 2899 2910 2923 2934 2944 2955 2968 2977 2988 2997 3007 3017 3026 3034 3042 3048 3053 3056
2825 2824 2821 2819 2816 2814 2812 2809 2806 2809 2806 2805 2803 2803 2802 2801 2804 2810 2814 2819 2827 2834 2842 2854 2869 2888 2901 2912 2924 2934 2943 2955 2968 2979 2990 3000 3010 3017 3025 3034 3040 3046 3049
2814 2813 2810 2809 2806 2804 2802 2799 2797 2794 2794 2797 2796 2792 2793 2792 2794 2799 2802 2807 2815 2822 2832 2843 2856 2873 2890 2901 2913 2923 2933 2944 2957 2969 2980 2990 3000 3009 3017 3024 3032 3039 3042
2803 2802 2800 2798 2796 2794 2792 2790 2787 2785 2784 2784 2785 2786 2783 2783 2785 2786 2789 2792 2802 2813 2823 2835 2849 2865 2876 2891 2903 2913 2922 2937 2947 2959 2970 2980 2991 3000 3010 3017 3025 3029 3035
2792 2791 2789 2787 2786 2784 2782 2780 2778 2777 2775 2774 2774 2775 2775 2774 2777 2779 2782 2784 2791 2798 2810 2823 2838 2853 2864 2880 2892 2904 2912 2925 2937 2950 2960 2972 2981 2992 3002 3010 3015 3020 3027
2781 2781 2780 2778 2776 2774 2772 2771 2769 2768 2766 2766 2765 2766 2765 2763 2767 2770 2772 2778 2784 2793 2801 2808 2825 2840 2853 2867 2883 2891 2902 2916 2928 2940 2954 2961 2972 2981 2992 3000 3006 3013 3018
2772 2771 2770 2769 2767 2765 2763 2762 2761 2760 2758 2757 2757 2757 2756 2756 2758 2760 2762 2767 2774 2779 2786 2795 2808 2827 2842 2860 2871 2883 2891 2904 2917 2930 2943 2955 2965 2974 2981 2989 2996 3004 3009
2763 2762 2761 2760 2758 2756 2754 2753 2752 2752 2750 2750 2749 2749 2749 2749 2749 2751 2751 2756 2763 2773 2783 2786 2800 2816 2833 2848 2859 2871 2882 2895 2907 2921 2934 2945 2956 2963 2971 2979 2986 2994 3000
2754 2753 2752 2751 2749 2747 2746 2745 2744 2743 2742 2741 2742 2742 2741 2743 2745 2746 2748 2752 2756 2763 2769 2780 2791 2804 2821 2834 2847 2862 2873 2885 2899 2914 2925 2937 2946 2953 2961 2971 2977 2986 2994
2747 2745 2744 2743 2741 2739 2738 2737 2735 2735 2735 2735 2735 2735 2735 2734 2735 2739 2743 2747 2753 2760 2765 2773 2784 2798 2811 2824 2838 2854 2867 2877 2890 2901 2914 2926 2937 2945 2954 2962 2968 2977 2986
2740 2739 2737 2735 2733 2731 2729 2728 2728 2727 2727 2728 2728 2727 2727 2730 2732 2733 2733 2736 2741 2749 2757 2768 2779 2789 2802 2815 2832 2845 2856 2869 2883 2894 2905 2915 2926 2935 2943 2952 2961 2968 2974
Wind_Speed
36 34 34 33 33 35 39 41 40 39 38 36 37 41 43 46 55 63 45 36 51 41 46 52 59 61 55 55 52 51 46 42 40 37 35 33 32 32 33 30 28 23 23
38 37 37 36 36 35 37 39 41 37 37 37 38 42 46 47 48 58 54 42 39 36 43 55 57 59 59 61 53 56 52 44 44 41 38 35 33 31 32 30 26 23 22
38 39 39 39 38 37 38 38 39 39 38 39 39 44 46 48 49 55 70 63 49 42 40 44 42 63 62 55 55 55 60 55 46 46 43 41 40 36 34 32 26 23 23
38 40 41 41 41 38 38 39 39 40 40 39 41 43 47 50 50 52 65 70 75 46 41 45 43 54 68 63 61 52 55 60 51 48 49 45 41 38 37 32 26 26 25
40 39 42 43 42 41 38 39 39 39 40 40 41 42 48 51 51 54 58 65 81 65 48 45 47 46 53 68 59 57 50 48 49 48 46 45 43 40 35 32 33 24 28
40 40 42 44 43 41 39 38 39 38 39 41 42 43 47 50 54 58 59 62 78 80 55 46 46 41 45 53 57 60 50 46 49 47 44 41 41 42 44 36 25 28 27
39 41 42 44 44 40 39 38 38 38 38 39 42 43 47 51 57 59 63 59 60 76 59 59 45 46 50 42 48 53 49 44 44 45 44 45 43 42 34 29 28 27 28
39 40 41 43 43 41 38 39 38 38 38 38 41 44 47 50 55 57 68 61 59 66 66 62 51 52 51 50 50 53 49 49 46 41 35 29 28 29 32 32 30 32 30
39 39 40 43 43 41 38 38 38 38 38 38 39 43 48 50 52 60 65 60 61 62 67 69 50 48 41 49 53 52 57 51 45 39 33 33 39 37 32 35 32 29 26
39 39 40 42 43 41 38 38 38 37 38 38 39 41 47 50 51 55 60 62 57 60 62 59 55 51 41 40 46 58 57 54 48 37 35 38 37 32 31 31 29 27 25
39 39 39 40 42 40 39 37 38 36 37 37 39 39 45 49 51 51 57 66 60 61 63 56 54 47 47 45 47 57 56 59 48 40 35 35 34 32 29 28 28 26 24
38 39 38 39 40 40 39 37 38 36 36 35 37 39 41 47 50 51 52 70 57 64 71 72 49 55 52 50 51 50 56 52 55 43 40 39 38 33 29 27 25 26 24
38 38 37 38 38 38 39 37 38 35 35 34 36 38 40 43 47 50 51 73 62 63 72 84 59 54 52 50 53 52 57 52 51 54 47 46 37 33 31 29 26 26 25
37 36 36 38 37 37 37 37 37 35 34 34 35 37 39 40 43 47 48 63 66 64 67 82 74 58 52 50 46 50 55 50 51 49 46 43 38 40 34 31 30 28 25
37 37 36 37 37 37 35 35 36 33 34 34 34 35 37 39 37 44 47 57 65 65 59 68 74 63 44 52 53 54 55 51 50 48 49 41 41 36 34 29 29 28 25
38 37 37 37 37 37 36 34 33 35 33 34 35 35 35 37 35 41 45 54 62 69 70 65 75 60 53 56 56 57 58 58 51 53 51 45 42 36 32 30 32 28 26
39 38 38 37 37 37 35 35 37 30 32 33 35 35 36 35 36 38 42 48 60 67 75 73 74 76 61 59 55 56 58 63 58 50 47 47 41 39 33 32 30 27 25
40 39 39 37 37 37 35 34 35 34 31 29 31 36 36 35 35 34 36 49 60 67 76 77 71 69 86 56 61 57 55 53 60 56 50 48 42 42 41 33 32 30 30
39 38 37 37 37 37 35 34 34 32 32 30 29 29 34 36 33 33 36 48 58 64 79 79 74 70 64 72 58 59 51 53 56 53 52 49 45 41 39 37 32 30 31
37 35 36 35 35 36 34 34 33 32 32 30 28 27 29 33 32 32 36 45 49 57 67 72 67 69 59 67 47 62 53 54 57 58 47 50 43 44 41 38 34 31 31
34 33 33 33 33 34 33 33 32 31 30 29 28 26 26 28 30 31 35 39 42 49 55 69 70 69 60 61 54 61 55 60 52 55 55 48 45 43 42 43 37 31 31
33 32 31 31 32 32 32 31 31 30 29 28 26 26 25 26 27 30 30 34 36 44 54 60 67 69 64 60 56 44 56 54 57 58 58 50 49 49 46 38 35 35 34
30 31 30 31 32 31 31 29 29 28 28 27 26 25 23 23 26 26 28 33 35 43 51 59 67 66 66 63 55 45 57 60 55 54 52 50 50 49 44 39 37 37 36
25 28 29 30 29 30 29 28 27 26 27 26 25 24 23 22 24 25 28 31 35 42 46 58 60 68 67 67 63 58 52 58 54 49 54 51 49 47 43 40 39 38 36
24 28 28 28 28 28 27 26 26 25 25 25 24 24 21 21 23 25 26 30 34 44 46 50 55 67 74 71 66 63 54 57 53 58 55 50 48 43 40 41 38 40 36
24 23 23 24 25 25 25 24 24 24 24 23 23 22 20 20 22 24 24 27 32 41 46 48 51 55 69 71 68 69 61 55 58 58 53 51 51 47 45 41 38 37 37
Wind_Direction
307 307 302 291 283 277 272 270 268 267 260 254 246 241 231 230 236 245 235 231 231 228 236 238 233 233 224 227 231 230 230 231 234 235 240 241 241 242 243 245 249 253 259
302 304 303 297 287 280 276 272 270 266 259 252 242 239 233 224 221 233 232 235 227 225 225 227 242 234 223 230 226 232 229 229 232 237 235 239 241 244 244 243 244 247 256
299 300 301 299 294 285 277 274 269 266 259 254 246 238 236 226 222 223 234 234 240 229 226 234 240 231 227 235 231 230 233 228 229 230 235 240 239 241 241 238 241 253 260
296 297 299 299 296 290 281 273 270 264 259 254 250 238 237 228 224 222 232 240 245 237 237 230 224 226 213 228 226 233 239 236 231 237 240 236 237 236 235 237 245 262 252
294 295 297 298 297 295 288 275 269 265 260 253 248 242 238 231 223 216 218 227 244 241 238 228 225 218 230 228 234 228 232 237 234 233 230 233 234 235 234 237 248 238 244
292 294 295 296 297 295 290 281 270 267 262 255 249 244 242 235 225 215 213 221 238 244 239 237 229 220 218 223 226 230 232 228 226 230 231 229 235 231 241 245 234 235 256
290 292 295 295 295 294 291 284 273 268 265 258 252 245 243 240 228 221 211 214 224 243 243 239 238 226 217 225 229 226 225 226 221 228 233 237 231 238 234 225 233 243 241
288 290 293 293 293 294 291 286 277 269 268 263 254 247 243 242 233 224 216 215 215 232 238 240 231 225 217 217 223 217 216 219 218 221 223 210 204 211 223 230 227 233 246
287 290 292 292 292 292 290 285 280 272 269 267 259 250 244 243 238 231 223 212 217 221 234 233 223 213 214 220 214 218 213 217 220 216 207 209 208 213 222 229 231 242 239
285 289 291 290 291 291 289 285 281 275 271 269 263 254 247 244 241 237 229 211 215 218 229 216 212 209 214 217 213 217 211 213 215 216 210 201 209 212 220 231 232 231 235
285 288 289 288 289 290 289 285 283 277 272 270 266 256 247 245 241 238 234 217 213 213 222 220 215 208 212 211 212 218 211 212 214 211 215 208 215 221 227 227 228 235 242
286 288 287 287 287 289 288 285 283 281 275 271 267 258 250 248 242 236 236 218 212 212 215 225 218 213 218 214 216 210 203 210 216 210 213 216 220 220 221 223 228 233 225
287 288 287 286 287 287 287 285 282 281 277 274 270 261 252 249 240 236 231 224 215 207 219 222 229 226 219 214 220 213 208 209 212 214 217 224 217 224 224 219 213 218 222
288 287 286 285 285 285 285 284 283 281 277 274 272 265 256 248 238 235 238 230 219 204 214 216 223 215 206 213 211 210 217 212 213 214 214 216 219 215 215 213 215 221 220
288 288 287 285 285 284 283 283 281 278 278 274 272 268 259 249 237 242 237 231 220 202 205 217 216 213 214 204 207 204 202 206 208 209 210 213 208 207 204 208 221 222 229
287 288 287 286 285 285 285 280 278 279 274 271 273 271 259 255 240 241 233 230 220 207 206 207 209 212 215 208 205 206 204 206 213 210 210 211 211 205 206 219 220 224 223
284 285 285 285 284 284 283 283 281 269 270 270 272 271 265 261 247 240 232 225 222 215 202 206 212 210 221 212 205 206 210 205 212 212 208 200 206 205 210 211 207 217 225
279 281 283 284 283 283 283 282 283 284 272 250 259 271 267 261 254 241 236 223 214 212 209 207 211 211 219 215 209 203 208 208 212 209 208 211 208 212 212 214 219 223 226
275 278 280 281 281 281 282 281 282 283 278 270 261 257 260 260 252 242 238 226 216 205 202 208 208 205 207 226 220 207 210 206 205 208 209 214 209 210 211 214 217 222 228
275 277 279 280 278 280 279 277 279 280 278 272 269 265 255 253 251 238 233 231 222 203 196 202 207 203 201 211 217 207 206 207 206 206 210 205 211 207 212 214 213 224 227
275 276 276 276 278 281 280 276 277 278 276 270 268 266 263 257 245 239 231 232 225 216 199 198 204 200 203 210 212 211 205 205 206 207 207 203 204 210 214 214 220 220 214
272 273 275 276 277 280 278 275 276 276 275 270 265 263 261 256 246 237 232 232 221 211 200 202 199 196 201 202 211 212 207 201 203 203 205 206 209 211 214 212 211 218 221
269 271 273 274 278 280 277 275 273 273 273 268 266 262 257 254 247 237 230 229 218 209 201 202 202 196 197 203 204 212 211 209 210 209 207 208 208 211 214 211 213 211 205
273 270 270 273 280 280 277 275 271 270 272 266 264 262 258 250 242 232 223 223 217 208 204 203 202 198 199 203 202 203 213 210 204 205 208 208 210 212 211 212 212 207 212
272 271 274 280 281 278 276 274 271 269 267 265 262 261 255 249 240 231 225 220 216 205 203 203 203 199 201 204 202 201 199 205 205 207 201 203 211 214 212 210 214 209 209
285 283 284 282 279 278 276 272 269 268 266 263 262 259 253 243 235 231 225 219 213 208 204 207 204 201 199 202 205 203 198 201 205 206 205 207 209 210 204 210 208 208 211